GW1838 Weather Reports


Display with metric or nautical units.
time (UTC)temp
F
wind
direction
speed
MPH
gust
MPH
rain 1hr
in
rain 24hr
in
rain mn
in
humidity
%
barometer
mb
20260901102306 77 242 5.0 10.0 0.00 0.00 0.00 90 1015.0
20260901101807 77 252 5.0 7.0 0.00 0.00 0.00 90 1014.9
20260901101306 77 240 3.0 7.0 0.00 0.00 0.00 90 1014.9
20260901100307 77 252 3.0 6.0 0.00 0.00 0.00 89 1014.9
20260901095807 77 244 2.0 7.0 0.00 0.00 0.00 89 1014.9
20260901094806 77 230 2.0 3.0 0.00 0.00 0.00 89 1015.0
20260901093306 77 239 4.0 8.0 0.00 0.00 0.00 89 1015.2
20260901092808 77 233 4.0 9.0 0.00 0.00 0.00 89 1015.2
20260901091806 77 244 3.0 7.0 0.00 0.00 0.00 89 1015.2
20260901090806 77 227 3.0 7.0 0.00 0.00 0.00 89 1015.1
20260901090306 77 237 3.0 9.0 0.00 0.00 0.00 89 1015.2
20260901085806 77 231 4.0 7.0 0.00 0.00 0.00 89 1015.3
20260901084806 77 234 4.0 9.0 0.00 0.00 0.00 89 1015.4
20260901083806 77 235 6.0 12.0 0.00 0.00 0.00 89 1015.4
20260901082806 77 238 5.0 9.0 0.00 0.01 0.00 89 1015.4
20260901082306 77 240 3.0 10.0 0.00 0.01 0.00 89 1015.3
20260901080806 76 235 6.0 12.0 0.00 0.01 0.00 89 1015.3
20260901074806 76 233 4.0 9.0 0.00 0.01 0.00 89 1015.5
20260901073306 76 219 3.0 9.0 0.00 0.01 0.00 89 1015.6
20260901072806 76 224 2.0 5.0 0.00 0.01 0.00 89 1015.6
20260901071306 76 228 2.0 6.0 0.00 0.01 0.00 89 1015.7
20260901070806 76 235 2.0 6.0 0.00 0.01 0.00 89 1015.8
20260901070306 76 235 3.0 6.0 0.00 0.01 0.00 89 1015.8
20260901065306 76 233 2.0 7.0 0.00 0.01 0.00 89 1015.8
20260901064806 76 212 3.0 6.0 0.00 0.01 0.00 88 1015.8
20260901064306 76 227 4.0 7.0 0.00 0.01 0.00 88 1015.9
20260901063305 76 213 2.0 6.0 0.00 0.01 0.00 88 1016.1
20260901062806 76 239 5.0 9.0 0.00 0.01 0.00 88 1016.1
20260901062310 76 218 5.0 8.0 0.00 0.01 0.00 88 1016.2
20260901061306 76 218 3.0 7.0 0.00 0.01 0.00 88 1016.2
20260901060805 76 217 2.0 6.0 0.00 0.01 0.00 88 1016.4
20260901060306 76 207 3.0 5.0 0.00 0.01 0.00 88 1016.4
20260901055806 76 202 2.0 5.0 0.00 0.01 0.00 87 1016.5
20260901054305 76 228 3.0 7.0 0.00 0.05 0.00 87 1016.7
20260901051306 76 214 3.0 7.0 0.00 0.16 0.00 87 1016.8
20260901050306 75 221 3.0 9.0 0.00 0.17 0.00 87 1016.7
20260901045806 75 212 3.0 10.0 0.00 0.17 0.00 87 1016.8
20260901045307 75 207 3.0 7.0 0.00 0.17 0.00 87 1016.8
20260901044306 75 215 3.0 6.0 0.00 0.24 0.00 87 1016.9
20260901043806 75 219 3.0 5.0 0.00 0.34 0.00 87 1017.0
20260901041805 75 207 2.0 5.0 0.00 0.54 0.00 86 1017.0
20260901041306 75 208 3.0 6.0 0.00 0.54 0.00 86 1017.0
20260901040838 75 205 3.0 6.0 0.00 0.54 0.00 86 1017.1
20260901033808 75 198 2.0 6.0 0.00 0.54 0.54 86 1017.0
20260901031305 75 200 3.0 6.0 0.00 0.54 0.54 86 1017.4
20260901030806 75 209 3.0 5.0 0.00 0.54 0.54 86 1017.3
20260901025308 74 199 3.0 7.0 0.00 0.54 0.54 86 1017.3
20260901023306 74 195 4.0 7.0 0.00 0.54 0.54 86 1017.5
20260901022306 74 203 3.0 7.0 0.00 0.54 0.54 85 1017.5
20260901021806 74 203 3.0 6.0 0.00 0.54 0.54 85 1017.7
20260901020306 74 196 3.0 5.0 0.00 0.54 0.54 85 1017.6
20260901015306 74 185 2.0 5.0 0.00 0.54 0.54 85 1017.5
20260901014805 74 205 2.0 5.0 0.00 0.54 0.54 85 1017.4
20260901013806 74 173 2.0 3.0 0.00 0.54 0.54 84 1017.5
20260901013306 74 197 3.0 5.0 0.00 0.54 0.54 84 1017.7
20260901012806 74 190 2.0 5.0 0.00 0.54 0.54 84 1017.7
20260901012306 74 187 2.0 3.0 0.00 0.54 0.54 84 1017.7
20260901011806 74 184 2.0 5.0 0.00 0.54 0.54 83 1017.7
20260901011305 74 204 2.0 5.0 0.00 0.54 0.54 83 1017.7
20260901010805 74 173 2.0 3.0 0.00 0.54 0.54 83 1017.7
20260901010306 74 169 3.0 6.0 0.00 0.54 0.54 83 1017.6
20260901005806 74 193 2.0 3.0 0.00 0.54 0.54 82 1017.4
20260901004806 74 196 2.0 5.0 0.00 0.54 0.54 82 1017.5
20260901001306 74 187 1.0 5.0 0.00 0.54 0.54 83 1017.3
20260901000306 74 182 1.0 3.0 0.00 0.54 0.54 82 1017.2
20260831235306 74 170 2.0 5.0 0.00 0.54 0.54 82 1017.3
20260831234306 74 183 2.0 3.0 0.00 0.54 0.54 82 1017.4
20260831233805 74 191 3.0 5.0 0.00 0.54 0.54 82 1017.4
20260831231307 74 184 1.0 3.0 0.00 0.54 0.54 82 1017.5
20260831225805 74 167 1.0 3.0 0.00 0.54 0.54 81 1017.5
20260831225306 74 174 1.0 3.0 0.00 0.54 0.54 81 1017.6
20260831224306 74 165 1.0 3.0 0.00 0.54 0.54 81 1017.7
20260831223306 74 163 1.0 3.0 0.00 0.54 0.54 81 1017.8
20260831222805 74 163 1.0 3.0 0.00 0.54 0.54 81 1017.8
20260831221806 74 150 1.0 3.0 0.00 0.54 0.54 81 1017.8
20260831220305 75 137 1.0 3.0 0.00 0.54 0.54 81 1017.9
20260831215805 75 126 1.0 3.0 0.00 0.54 0.54 81 1017.8
20260831214805 75 94 2.0 6.0 0.00 0.54 0.54 80 1017.7
20260831214306 75 99 4.0 6.0 0.00 0.54 0.54 80 1017.7
20260831213805 75 109 5.0 7.0 0.00 0.54 0.54 79 1017.7
20260831211807 75 109 6.0 9.0 0.00 0.54 0.54 80 1017.8
20260831211306 75 105 5.0 9.0 0.00 0.54 0.54 79 1017.9
20260831204305 75 91 5.0 9.0 0.00 0.54 0.54 79 1018.1
20260831200806 75 97 4.0 7.0 0.00 0.54 0.54 79 1018.5
20260831200305 75 100 3.0 7.0 0.00 0.54 0.54 79 1018.5
20260831195306 75 92 6.0 7.0 0.00 0.54 0.54 78 1018.5
20260831194306 76 101 5.0 7.0 0.00 0.54 0.54 77 1018.4
20260831191306 76 77 5.0 9.0 0.00 0.54 0.54 77 1018.7
20260831190806 76 92 4.0 9.0 0.00 0.54 0.54 78 1018.7
20260831190305 76 66 5.0 8.0 0.00 0.54 0.54 77 1018.7
20260831185306 77 56 5.0 9.0 0.00 0.54 0.54 77 1018.8
20260831184805 77 47 6.0 10.0 0.00 0.54 0.54 76 1018.7
20260831183805 77 44 5.0 10.0 0.00 0.54 0.54 76 1018.8
20260831183305 77 78 5.0 10.0 0.00 0.54 0.54 76 1018.8
20260831182806 78 76 5.0 9.0 0.00 0.54 0.54 75 1018.8
20260831182306 79 84 4.0 9.0 0.00 0.54 0.54 73 1018.9
20260831180305 78 85 5.0 9.0 0.00 0.54 0.54 75 1018.9
20260831175306 78 71 5.0 10.0 0.00 0.54 0.54 75 1018.9
20260831174805 78 101 5.0 10.0 0.00 0.54 0.54 75 1018.9
20260831172805 78 79 5.0 9.0 0.00 0.54 0.54 75 1018.8
20260831172306 77 51 5.0 8.0 0.00 0.54 0.54 76 1018.9
20260831171806 77 83 4.0 9.0 0.00 0.54 0.54 76 1018.9
20260831171305 77 77 6.0 12.0 0.00 0.54 0.54 76 1019.0
20260831170306 77 94 5.0 9.0 0.00 0.54 0.54 75 1018.9
20260831164806 78 61 3.0 7.0 0.00 0.54 0.54 76 1019.0
20260831163805 79 94 5.0 8.0 0.00 0.54 0.54 75 1019.1
20260831163305 79 102 4.0 9.0 0.00 0.54 0.54 76 1019.1
20260831162306 79 104 6.0 10.0 0.00 0.54 0.54 76 1019.1
20260831161805 78 62 6.0 10.0 0.00 0.54 0.54 77 1019.1
20260831161305 78 70 6.0 10.0 0.00 0.54 0.54 77 1019.2
20260831160305 78 55 6.0 12.0 0.00 0.54 0.54 78 1019.2
20260831155306 77 80 8.0 12.0 0.00 0.54 0.54 77 1019.1
20260831154805 77 61 6.0 10.0 0.00 0.54 0.54 77 1019.0
20260831152306 77 63 5.0 10.0 0.00 0.54 0.54 77 1019.1
20260831151805 78 53 5.0 9.0 0.00 0.54 0.54 77 1019.2
20260831151305 78 80 5.0 7.0 0.00 0.54 0.54 78 1019.2
20260831145805 77 98 5.0 10.0 0.00 0.54 0.54 80 1018.9
20260831144805 77 102 5.0 8.0 0.00 0.54 0.54 82 1018.9
20260831143305 76 98 6.0 9.0 0.00 0.54 0.54 83 1019.0
20260831142806 76 84 5.0 10.0 0.00 0.54 0.54 83 1019.1
20260831141805 76 100 4.0 7.0 0.00 0.54 0.54 84 1019.1
20260831135805 75 74 5.0 12.0 0.00 0.54 0.54 82 1019.2
20260831135306 75 67 6.0 12.0 0.00 0.54 0.54 82 1019.1
20260831134805 75 74 4.0 8.0 0.00 0.54 0.54 83 1019.2
20260831132805 75 82 5.0 8.0 0.00 0.54 0.54 82 1018.9
20260831131805 75 75 3.0 6.0 0.00 0.54 0.54 82 1018.8
20260831131305 75 60 5.0 7.0 0.00 0.54 0.54 81 1018.8
20260831130305 75 72 5.0 9.0 0.00 0.54 0.54 81 1018.7
20260831125306 75 61 4.0 10.0 0.00 0.54 0.54 81 1018.8
20260831124806 75 53 5.0 10.0 0.00 0.54 0.54 81 1018.9
20260831123305 74 68 5.0 12.0 0.00 0.54 0.54 82 1018.8
20260831122306 74 54 5.0 12.0 0.00 0.54 0.54 84 1018.9
20260831121805 74 48 5.0 10.0 0.00 0.54 0.54 85 1018.9
20260831115306 74 43 3.0 5.0 0.00 0.54 0.54 86 1018.5
20260831113805 73 52 3.0 6.0 0.00 0.54 0.54 87 1018.6
20260831112805 73 40 3.0 5.0 0.00 0.54 0.54 88 1018.7
20260831112307 73 48 3.0 5.0 0.00 0.54 0.54 88 1018.6
20260831111305 73 51 3.0 3.0 0.00 0.54 0.54 88 1018.6
20260831110310 72 46 2.0 6.0 0.00 0.54 0.54 88 1018.4
20260831105806 72 18 1.0 3.0 0.00 0.54 0.54 88 1018.3
20260831105306 72 39 4.0 6.0 0.00 0.54 0.54 88 1018.3
20260831104805 72 32 4.0 6.0 0.00 0.54 0.54 89 1018.3